Regional Weather Roundup
Issued by NWS

Current Version | Previous Version | Text Only | Print | Product List | Glossary On
Versions: 1 2 3 4 5 6 7 8 9 10 11 12 13 14 15 16 17 18 19 20 21 22 23 24 25 26 27 28 29 30 31 32 33 34 35 36 37 38 39 40 41 42 43 44 45 46 47 48 49 50
000
ASUS46 KSTO 061215
RWRCA

NORTHERN AND CENTRAL CA REGIONAL WEATHER ROUNDUP
NATIONAL WEATHER SERVICE SACRAMENTO CA
400 AM PST TUE DEC 06 2016

NOTE: FAIR INDICATES FEW OR NO CLOUDS BELOW 12,000 FEET WITH NO
SIGNIFICANT WEATHER AND/OR OBSTRUCTIONS TO VISIBILITY.

CAZ001-003-061300-
NORTHWEST AREA

CITY           SKY/WX    TMP DP  RH WIND       PRES   REMARKS
CRESCENT CITY  MOCLDY    43  40  89 NE7       30.08S
UKIAH          CLEAR     30  29  96 CALM      30.09F
$$

CAZ006-505>513-061300-
BAY AREA

CITY           SKY/WX    TMP DP  RH WIND       PRES   REMARKS
SANTA ROSA     CLEAR     33  32  96 CALM      30.07R
SAN RAFAEL     N/A       43  MM  MM MISG
NAPA           CLEAR     36  34  92 CALM      30.06S
CONCORD        MOCLDY    44  38  79 SE5       30.06S
OAKLAND CITY   N/A       46  MM  MM MISG
OAKLAND        PTCLDY    44  35  70 N7        30.06S
SAN FRAN CITY  N/A       45  MM  75 MISG
SAN FRAN ARPT  PTCLDY    46  36  68 W8        30.06R
LIVERMORE      CLOUDY    43  42  97 CALM      30.03F
HAYWARD        CLEAR     43  38  82 CALM      30.05S HAZE
REDWOOD CITY   N/A       39  MM  91 MISG
MOFFETT ARPT   CLEAR     43  37  79 CALM      30.06S
SAN JOSE ARPT  CLEAR     46  39  76 CALM      30.05S
$$
CAZ034-037-514>518-061300-
CENTRAL COAST

CITY           SKY/WX    TMP DP  RH WIND       PRES   REMARKS
WATSONVILLE    CLOUDY    45  44  97 CALM      30.04F
SALINAS        CLOUDY    48  43  82 SW3       30.03F
MONTEREY       PTCLDY    48  43  82 S6        30.04F
SAN LUIS OBISP CLEAR     49  43  80 W3        29.99S
SANTA MARIA    CLEAR     43  43 100 CALM      29.99F
$$
CAZ015-016-061300-
NORTHERN SACRAMENTO VALLEY

CITY           SKY/WX    TMP DP  RH WIND       PRES   REMARKS
REDDING        CLEAR     30  28  92 CALM      30.01F
RED BLUFF      CLEAR     31  27  85 SW3       30.03S
OROVILLE       FOG       32  30  92 CALM      30.06S VSB 3/4
$$
CAZ016>018-061300-
SOUTHERN SACRAMENTO VALLEY

CITY           SKY/WX    TMP DP  RH WIND       PRES   REMARKS
AUBURN         CLOUDY    39  39 100 CALM      30.03R
BEALE AFB      CLEAR     33  33  99 E3        30.03S
LINCOLN        FAIR      30  30 100 E6        30.04S WCI  24
MARYSVILLE     FOG       31  30  96 CALM      30.06R VSB 1/4
PLACERVILLE    CLOUDY    37  36  93 CALM      30.00R
SAC INTL ARPT  CLEAR     33  33 100 N5        30.05R FOG     WCI  29
MATHER AIRPORT FOG       36  36 100 CALM      30.05R VSB 0
DOWNTOWN SAC   N/A       40  MM  MM MISG
SAC EXEC ARPT  PTCLDY    37  37 100 CALM      30.05R FOG
VACAVILLE      CLEAR     36  36 100 CALM      30.06S
TRAVIS AFB     MOCLDY    34  34  97 W3        30.03S FOG
$$
CAZ019>021-061300-
SAN JOAQUIN VALLEY

CITY           SKY/WX    TMP DP  RH WIND       PRES   REMARKS
STOCKTON       CLOUDY    42  41  96 W6        30.03S FOG
MODESTO        MOCLDY    44  41  89 CALM      30.03S FOG
MERCED         FOG       39  38  96 W3        30.02F VSB 1/4
LEMOORE        FOG       44  43  96 CALM      30.03F VSB 1/4
FRESNO         FOG       43  42  97 CALM      30.02F VSB 1/8
HANFORD        FOG       42  42 100 CALM      30.03F VSB 1/4
PORTERVILLE    MOCLDY    40  37  89 S3        30.03F FOG
BAKERSFIELD    CLOUDY    48  38  68 SE3       30.01F
$$
CAZ011-012-071-061300-
NORTHERN MOUNTAINS

CITY           SKY/WX    TMP DP  RH WIND       PRES   REMARKS
YREKA          CLOUDY    31  28  89 SE3       29.95F
MOUNT SHASTA   MOCLDY    27  21  78 CALM      29.92S
ALTURAS        MOCLDY    21  18  88 CALM      29.88F
$$
CAZ011-012-071-061300-
SIERRA NEVADA MTNS

CITY           SKY/WX    TMP DP  RH WIND       PRES   REMARKS
BLUE CANYON    CLOUDY    30  27  88 S6        29.96R WCI  24
TRUCKEE        CLEAR     16   5  62 S3        29.89F
TAHOE VLY ARPT CLEAR     28   2  32 S7        29.89F WCI  21
MAMMOTH LAKES  FAIR      35   7  31 W25G32    29.90F WCI  23
$$




USA.gov is the U.S. government's official web portal to all federal, state and local government web resources and services.